Change the Weather History Date:

Monday, August 12, 2013

  Actual Average Record
Temperature  
Mean Temperature 73 °F 73 °F  
Max Temperature 83 °F 84 °F 94 °F (2010)
Min Temperature 63 °F 63 °F 44 °F (2004)
Degree Days  
Heating Degree Days 0 0  
Month to date heating degree days 0 0  
Since 1 June heating degree days 9 14  
Since 1 July heating degree days 2 1  
Cooling Degree Days 8 8  
Month to date cooling degree days 99 106  
Year to date cooling degree days 716 738  
Since 1 June cooling degree days 602 652  
Growing Degree Days 22 (Base 50)    
Moisture  
Dew Point 65 °F    
Average Humidity 74    
Maximum Humidity 93    
Minimum Humidity 55    
Precipitation  
Precipitation 0.01 in 0.10 in 0.77 in (1977)
Month to date precipitation 1.03 1.26  
Year to date precipitation 32.79 28.93  
Sea Level Pressure  
Sea Level Pressure 29.99 in    
Wind  
Wind Speed 2 mph (WSW)    
Max Wind Speed 9 mph    
Max Gust Speed 13 mph    
Visibility 8 miles    
Events Rain    
T = Trace of Precipitation, MM = Missing Value Source: NWS Daily Summary

Daily Weather History Graph

Daily Weather History Graph

Search for Another Location

Airport or City:

Trip Planner

Search our weather history database for the weather conditions in past years. The results will help you decide how hot, cold, wet, or windy it might be!

Date:

Astronomy

Aug. 12, 2013 Rise Set
Actual Time 6:59 AM EDT 8:48 PM EDT
Civil Twilight 6:30 AM EDT 9:17 PM EDT
Nautical Twilight 5:55 AM EDT 9:52 PM EDT
Astronomical Twilight 5:17 AM EDT 10:29 PM EDT
Moon 12:47 PM EDT (8/12) 11:43 PM EDT (8/12)
Length of Visible Light 14h 47m
Length of Day
13h 49m
Waxing Crescent, 31% of the Moon is Illuminated
Aug 12
Waxing Crescent
Aug 14
First Quarter
Aug 20
Full
Aug 28
Last Quarter
Sep 5
New

Hourly Weather History & Observations

Time (EDT) Temp. Heat Index Dew Point Humidity Pressure Visibility Wind Dir Wind Speed Gust Speed Precip Events Conditions
12:53 AM 66.0 °F - 63.0 °F 90% 30.09 in 4.0 mi Calm Calm - N/A   Clear
1:53 AM 66.0 °F - 62.1 °F 87% 30.08 in 8.0 mi Calm Calm - N/A   Clear
2:53 AM 66.0 °F - 63.0 °F 90% 30.07 in 8.0 mi Calm Calm - N/A   Clear
3:53 AM 66.0 °F - 63.0 °F 90% 30.06 in 6.0 mi Calm Calm - N/A   Clear
4:53 AM 64.9 °F - 62.1 °F 90% 30.05 in 5.0 mi Calm Calm - N/A   Clear
5:53 AM 64.0 °F - 62.1 °F 93% 30.04 in 5.0 mi Calm Calm - N/A   Clear
6:53 AM 64.0 °F - 62.1 °F 93% 30.04 in 2.5 mi Calm Calm - N/A   Clear
7:00 AM 62.6 °F - 60.8 °F 94% 30.04 in 4.0 mi Calm Calm - N/A   Clear
7:53 AM 64.9 °F - 63.0 °F 93% 30.04 in 6.0 mi Calm Calm - N/A   Clear
8:53 AM 70.0 °F - 66.0 °F 87% 30.04 in 10.0 mi Calm Calm - N/A   Clear
9:53 AM 73.9 °F - 64.9 °F 73% 30.04 in 10.0 mi Calm Calm - N/A   Clear
10:53 AM 77.0 °F - 62.1 °F 60% 30.02 in 10.0 mi Variable 3.5 mph - N/A   Clear
11:53 AM 79.0 °F - 63.0 °F 58% 30.02 in 10.0 mi SW 5.8 mph - N/A   Scattered Clouds
12:53 PM 81.0 °F 82.5 °F 64.0 °F 56% 30.00 in 10.0 mi Variable 5.8 mph - N/A   Partly Cloudy
1:53 PM 82.0 °F 83.4 °F 64.0 °F 54% 29.99 in 10.0 mi WSW 8.1 mph - N/A   Clear
2:53 PM 82.0 °F 83.8 °F 64.9 °F 56% 29.96 in 10.0 mi West 6.9 mph - N/A   Clear
3:53 PM 82.0 °F 83.8 °F 64.9 °F 56% 29.95 in 10.0 mi West 5.8 mph - N/A   Clear
4:53 PM 81.0 °F 83.3 °F 66.9 °F 62% 29.93 in 10.0 mi West 3.5 mph - N/A   Clear
5:53 PM 80.1 °F 82.7 °F 68.0 °F 67% 29.92 in 10.0 mi Calm Calm - N/A   Clear
6:53 PM 78.1 °F - 69.1 °F 74% 29.92 in 10.0 mi Calm Calm - N/A   Scattered Clouds
7:53 PM 75.9 °F - 71.1 °F 85% 29.89 in 10.0 mi South 3.5 mph - 0.01 in Rain Light Rain
8:53 PM 73.9 °F - 71.1 °F 91% 29.91 in 10.0 mi Calm Calm - 0.00 in   Mostly Cloudy
9:53 PM 73.0 °F - 69.1 °F 87% 29.91 in 10.0 mi West 4.6 mph - N/A   Clear
10:53 PM 71.1 °F - 66.9 °F 87% 29.92 in 10.0 mi Calm Calm - N/A   Clear
11:53 PM 70.0 °F - 66.9 °F 90% 29.93 in 9.0 mi West 3.5 mph - N/A   Clear